User: anonymous   Login
Location: Dunedin
(45.8670°S, 170.5000°E)
Time: 00:31:09
(UTC+13:00)
Language:

BREEZE-M DEB (TANK) - Orbit

View from above orbital plane
View from above orbital plane
View from above satellite
View from above satellite

Ground track
Ground track

The orbit data is extracted from the following two-line orbital elements,

1 34712U 09016C   19292.44937572 +.00000550 +00000-0 +11849-3 0  9993
2 34712 046.0966 314.2269 5057623 153.2590 245.6730 05.52770024207211
Epoch (UTC): 19 October 2019 10:47:06
Eccentricity: 0.5057623
inclination: 46.0966°
perigee height: 300 km
apogee height: 13967 km
right ascension of ascending node: 314.2269°
argument of perigee: 153.2590°
revolutions per day: 5.52770024
mean anomaly at epoch: 245.6730°
orbit number at epoch: 20721

The dashed part of the orbit path shows where the satellite is in the earth's shadow,  

DLR